Regional Weather Roundup
Issued by NWS

Home | Current Version | Previous Version | Text Only | Print | Product List | Glossary On
Versions: 1 2 3 4 5 6 7 8 9 10 11 12 13 14 15 16 17 18 19 20 21 22 23 24 25 26 27 28 29 30 31 32 33 34 35 36 37 38 39 40 41 42 43 44 45 46 47 48 49 50
461
ASUS44 KJAN 010910
RWRMS

MISSISSIPPI HOURLY WEATHER ROUNDUP
NATIONAL WEATHER SERVICE JACKSON MS
400 AM CDT WED OCT 01 2014

NOTE: "FAIR: INDICATES FEW OR NO CLOUDS BELOW 12,000 FEET WITH NO
SIGNIFICANT WEATHER AND/OR OBSTRUCTIONS TO VISIBILITY.

MSZ001>002-007>008-010>013-018>021-025>028-034>036-011000-
NORTHWEST MISSISSIPPI

CITY           SKY/WX    TMP DP  RH WIND       PRES   REMARKS
CLARKSDALE     FAIR      64  64 100 SE3       29.89S
CLEVELAND      FAIR      71  66  84 SE6       29.87S
GREENWOOD      CLEAR     64  61  90 CALM      29.89S
GREENVILLE     PTCLDY    70  64  81 SE6       29.87S
GRENADA        FAIR      61  61 100 CALM      29.90S
OLIVE BRANCH   CLEAR     64  64 100 CALM      29.91R
OXFORD         FAIR      61  59  94 CALM      29.92S
TUNICA         SUNNY     63  61  94 CALM      29.90R
$$

MSZ003>006-009-014>017-022>024-029>033-037>039-011000-
NORTHEAST MISSISSIPPI

CITY           SKY/WX    TMP DP  RH WIND       PRES   REMARKS
COLUMBUS AFB   CLEAR     60  60 100 CALM      29.91R
CORINTH        FOG       59  57  94 CALM      29.91R VSB 3/4
GOLDN TRIANGLE CLEAR     63  55  77 CALM      29.91R
STARKVILLE     FAIR      59  59 100 CALM      29.91S
TUPELO         CLEAR     62  60  93 CALM      29.91R
$$

MSZ040-058-011000-
CENTRAL MISSISSIPPI

CITY           SKY/WX    TMP DP  RH WIND       PRES   REMARKS
JACKSON INTL   PTCLDY    68  66  93 CALM      29.90R
JACKSON HAWKNS PTCLDY    71  67  87 SE3       29.90S
MERIDIAN KEY   CLEAR     62  60  93 CALM      29.92R
MERIDIAN NAS   CLEAR     62  59  90 CALM      29.92R
RAYMOND        FAIR      68  64  88 MISG      29.90R
VICKSBURG      MOCLDY    74  69  85 S5        29.88R
$$

MSZ059>079-011000-
SOUTH MISSISSIPPI

CITY           SKY/WX    TMP DP  RH WIND       PRES   REMARKS
BROOKHAVEN     PTSUNNY   72  72 100 S6        29.92R FOG
COLUMBIA       CLOUDY    68  68 100 CALM      29.89S FOG
HATTIESBURG    PTCLDY    66  64  93 CALM      29.92R
MCCOMB         CLOUDY    72  71  97 S7        29.90S FOG
NATCHEZ        MOCLDY    72  70  94 S3        29.89S
PINE BELT      CLEAR    N/A N/A N/A CALM      29.92R
$$

MSZ080>082-011000-
COASTAL MISSISSIPPI

CITY           SKY/WX    TMP DP  RH WIND       PRES   REMARKS
BILOXI         CLEAR     71  71 100 NE5       29.89S
PASCAGOULA     CLEAR     64  63  96 CALM      29.89S FOG
GULFPORT       MOCLDY    71  70  96 CALM      29.88S
$$



USA.gov is the U.S. government's official web portal to all federal, state and local government web resources and services.